This demonstration page uses our WeatherBlox Daily Observations layout. Learn more.

38.89511, -77.03637

Hourly Observations for March 10, 2015

Temp ( °F °C ) Dew Point ( °F °C ) Humidity (%) Winds ( mph kmh ) Pressure ( in mb ) Visibility ( mi km ) Precip ( " mm )
12:52 am 00:52 Mostly Cloudy 45 7 32 0 61 61 Calm 30.27 1025 10 16.09344 0 0
1:52 am 01:52 Mostly Cloudy 45 7 32 0 61 61 Calm 30.27 1025 10 16.09344 0 0
2:52 am 02:52 Mostly Cloudy 43 6 30 -1 61 61 N 5 7 30.27 1025 10 16.09344 0 0
3:52 am 03:52 Mostly Cloudy 39 4 30 -1 70 70 NE 6 9 30.24 1024 10 16.09344 0 0
4:52 am 04:52 Mostly Cloudy 41 5 30 -1 66 66 N 5 7 30.24 1024 10 16.09344 0 0
5:52 am 05:52 Mostly Cloudy 39 4 30 -1 70 70 NE 5 7 30.24 1024 10 16.09344 0 0
6:52 am 06:52 Cloudy 39 4 30 -1 70 70 NE 8 13 30.27 1025 10 16.09344 0 0
7:52 am 07:52 Cloudy 41 5 30 -1 66 66 NE 6 9 30.24 1024 10 16.09344 0 0
8:52 am 08:52 Cloudy 43 6 32 0 66 66 ENE 3 6 30.27 1025 10 16.09344 0 0
9:52 am 09:52 Cloudy 46 8 34 1 62 62 Calm 30.27 1025 10 16.09344 0 0
10:52 am 10:52 Cloudy with Light Rain 50 10 36 2 58 58 Calm 30.27 1025 10 16.09344 0.001 0.001
11:52 am 11:52 Cloudy with Light Rain 46 8 37 3 71 71 S 9 15 30.27 1025 9 14.484096 0.001 0.001
12:52 pm 12:52 Cloudy with Light Rain 46 8 39 4 76 76 SSE 5 7 30.24 1024 9 14.484096 0.01 0.254
1:52 pm 13:52 Cloudy with Light Rain 46 8 39 4 76 76 S 3 6 30.21 1023 6 9.656064 0.02 0.508
2:52 pm 14:52 Cloudy with Light Rain 48 9 41 5 76 76 Calm 30.15 1021 6 9.656064 0.02 0.508
3:23 pm 15:23 Cloudy with Light Rain 48 9 43 6 82 82 Calm 30.15 1021 5 8.04672 0.02 0.508
3:52 pm 15:52 Cloudy with Light Rain 46 8 41 5 82 82 SSE 3 6 30.15 1021 4 6.437376 0.03 0.762
4:24 pm 16:24 Cloudy with Light Rain 48 9 45 7 87 87 Calm 30.12 1020 4 6.437376 0 0
4:34 pm 16:34 Cloudy with Light Rain 48 9 45 7 87 87 Calm 30.12 1020 4 6.437376 0 0
4:52 pm 16:52 Cloudy with Light Rain 48 9 43 6 82 82 SSW 6 9 30.12 1020 3 4.828032 0.04 1.016
5:19 pm 17:19 Cloudy with Light Rain 48 9 45 7 87 87 SSW 5 7 30.12 1020 4 6.437376 0.01 0.254
5:26 pm 17:26 Cloudy with Light Rain 48 9 45 7 87 87 S 3 6 30.12 1020 3 4.828032 0.01 0.254
5:33 pm 17:33 Cloudy with Light Rain 48 9 43 6 82 82 SSW 3 6 30.09 1019 2.5 4.02336 0.01 0.254
5:40 pm 17:40 Cloudy with Light Rain 48 9 45 7 87 87 Calm 30.09 1019 3 4.828032 0 0
5:42 pm 17:42 Cloudy with Light Rain 48 9 45 7 87 87 Calm 30.09 1019 3 4.828032 0 0
5:52 pm 17:52 Cloudy with Light Rain 48 9 45 7 87 87 SSW 3 6 30.12 1020 4 6.437376 0.02 0.508
6:00 pm 18:00 Cloudy with Light Rain 50 10 45 7 82 82 WSW 5 7 30.12 1020 4 6.437376 0 0
6:13 pm 18:13 Cloudy with Light Rain 48 9 45 7 87 87 Calm 30.09 1019 2.5 4.02336 0.01 0.254
6:17 pm 18:17 Cloudy with Light Rain 46 8 43 6 87 87 Calm 30.09 1019 2 3.218688 0.02 0.508
6:19 pm 18:19 Cloudy with Light Rain 46 8 43 6 87 87 Calm 30.09 1019 1.75 2.816352 0.02 0.508
6:25 pm 18:25 Cloudy with Light Rain 46 8 43 6 87 87 Calm 30.09 1019 1.5 2.414016 0.02 0.508
6:28 pm 18:28 Cloudy with Light Rain 46 8 43 6 87 87 Calm 30.09 1019 1.25 2.01168 0 0
6:30 pm 18:30 Cloudy with Light Rain 46 8 43 6 87 87 Calm 30.09 1019 1.25 2.01168 0 0
6:35 pm 18:35 Cloudy with Light Rain 46 8 43 6 87 87 Calm 30.09 1019 1 1.609344 0.03 0.762
6:52 pm 18:52 Cloudy with Light Rain 48 9 45 7 87 87 Calm 30.09 1019 1.5 2.414016 0.04 1.016
7:03 pm 19:03 Cloudy with Light Rain 48 9 45 7 87 87 Calm 30.09 1019 2 3.218688 0 0
7:16 pm 19:16 Cloudy with Light Rain 46 8 43 6 87 87 Calm 30.09 1019 1.5 2.414016 0.03 0.762
7:20 pm 19:20 Cloudy with Light Rain 46 8 43 6 87 87 Calm 30.09 1019 0.75 1.207008 0 0
7:41 pm 19:41 Cloudy with Light Rain 46 8 45 7 93 93 S 3 6 30.09 1019 2.5 4.02336 0.04 1.016
7:52 pm 19:52 Cloudy with Light Rain 46 8 45 7 93 93 S 3 6 30.09 1019 2.5 4.02336 0.04 1.016
8:49 pm 20:49 Cloudy with Light Rain 48 9 45 7 87 87 Calm 30.06 1018 1.5 2.414016 0.09 2.286
8:52 pm 20:52 Cloudy with Light Rain 48 9 45 7 87 87 Calm 30.06 1018 1.5 2.414016 0.09 2.286
9:10 pm 21:10 Cloudy with Light Rain 48 9 45 7 87 87 SSE 3 6 30.06 1018 2 3.218688 0 0
9:13 pm 21:13 Cloudy with Light Rain 48 9 45 7 87 87 SSE 3 6 30.06 1018 1.25 2.01168 0.03 0.762
9:20 pm 21:20 Cloudy with Light Rain 46 8 43 6 87 87 SSE 3 6 30.06 1018 0.75 1.207008 0 0
9:39 pm 21:39 Cloudy with Mist and Fog 48 9 45 7 87 87 S 3 6 30.06 1018 1.25 2.01168 0.04 1.016
9:43 pm 21:43 Cloudy with Light Rain 48 9 45 7 87 87 S 5 7 30.03 1017 2 3.218688 0.04 1.016
9:52 pm 21:52 Cloudy with Light Rain 48 9 45 7 87 87 S 6 9 30.03 1017 2.5 4.02336 0.04 1.016
9:57 pm 21:57 Cloudy with Light Rain 46 8 43 6 87 87 S 6 9 30.03 1017 1.5 2.414016 0.001 0.001
10:03 pm 22:03 Cloudy with Light Rain 46 8 43 6 87 87 S 5 7 30.03 1017 0.75 1.207008 0 0
10:10 pm 22:10 Cloudy with Light Rain 48 9 45 7 87 87 S 3 6 30.03 1017 1 1.609344 0 0
10:15 pm 22:15 Cloudy with Light Rain 48 9 45 7 87 87 S 3 6 30.03 1017 2 3.218688 0.02 0.508
10:31 pm 22:31 Cloudy with Light Rain 46 8 45 7 93 93 Calm 30.03 1017 1.75 2.816352 0.03 0.762
10:35 pm 22:35 Cloudy with Light Rain 46 8 43 6 87 87 Calm 30.03 1017 2 3.218688 0.04 1.016
10:41 pm 22:41 Cloudy with Light Rain 46 8 45 7 93 93 Calm 30.03 1017 3 4.828032 0.04 1.016
10:52 pm 22:52 Cloudy with Light Rain 46 8 43 6 87 87 Calm 30.03 1017 3 4.828032 0.05 1.27
11:00 pm 23:00 Cloudy with Light Rain 46 8 45 7 93 93 Calm 30.03 1017 3 4.828032 0 0
11:52 pm 23:52 Cloudy with Light Rain 46 8 43 6 87 87 S 7 11 30 1016 3 4.828032 0.02 0.508
11:55 pm 23:55 Cloudy with Light Rain 46 8 43 6 87 87 S 7 11 30 1016 2.5 4.02336 0.001 0.001

Powered by AerisWeather